GFSGBSN_250_rhum_132.txt.gz
RH
67 72 53 58 98 81 92 58 81 78 96 88 86 65 79 66 89 62 54 79 96 84 67 58 97 100 100 92 81 72 68 61 71 78 78 83 90 91 85 72 79 72 65 50 41 34 35
44 55 91 54 59 91 83 48 89 71 66 72 83 82 78 47 67 56 58 60 70 78 80 96 100 100 100 97 86 84 84 85 99 97 83 98 100 96 83 70 66 58 55 48 46 44 41
60 49 74 67 46 56 91 38 49 72 53 58 61 68 90 41 38 40 39 58 81 77 87 100 93 100 100 100 100 100 100 100 90 99 97 85 89 98 86 63 54 45 44 43 39 41 38
68 67 42 48 49 62 87 75 67 90 40 57 48 60 99 88 76 40 36 42 83 81 100 99 100 100 100 100 100 96 70 95 100 100 100 100 83 79 64 60 58 59 52 55 52 52 38
81 72 47 55 57 61 79 91 97 66 54 59 75 61 66 87 97 100 94 87 88 91 80 84 86 100 100 93 64 72 100 100 100 100 100 100 99 98 89 80 66 65 74 71 55 47 46
99 88 75 63 62 63 59 74 85 72 57 44 56 98 100 100 100 100 100 100 94 83 83 87 92 100 90 84 90 100 100 100 100 100 100 99 95 100 87 70 83 72 63 58 65 60 53
100 100 100 100 100 99 90 92 89 88 66 45 50 64 82 100 100 100 100 100 100 100 100 100 100 100 100 100 91 100 100 100 100 97 99 92 90 100 100 78 77 82 79 76 80 68 67
100 100 100 96 100 92 100 85 65 63 75 65 94 98 100 100 100 100 100 100 88 97 100 100 100 92 99 100 100 100 100 100 100 100 100 100 93 100 100 92 68 77 97 96 84 89 91
88 95 100 100 100 100 100 100 100 100 100 100 76 56 56 45 43 40 64 87 50 62 61 58 47 92 98 100 100 100 100 100 100 100 100 97 100 96 92 79 87 99 86 100 98 100 90
100 100 100 100 100 100 100 100 100 100 100 95 86 85 72 59 59 42 51 54 82 69 66 75 74 72 90 100 100 100 100 100 100 100 100 100 100 100 99 98 98 85 97 81 76 71 67
100 100 100 100 100 100 100 97 95 98 100 93 100 98 85 77 81 67 94 60 75 85 69 81 77 98 100 100 100 100 100 99 90 100 100 100 100 98 100 99 91 96 97 98 77 61 72
100 100 100 98 100 100 100 100 100 96 98 99 98 100 100 100 97 100 100 97 89 99 97 92 86 78 91 94 98 100 100 100 100 100 100 98 100 98 87 90 95 82 68 61 53 43 49
82 94 84 80 80 81 85 88 89 98 97 92 100 98 94 100 93 87 92 100 95 95 92 98 100 97 86 87 94 84 74 71 72 78 92 88 96 97 78 76 72 64 54 55 48 47 51
76 74 74 77 71 73 90 88 100 100 100 100 100 100 100 100 95 92 83 96 90 99 100 100 99 93 83 85 90 86 77 78 91 93 80 96 100 100 76 54 50 52 58 43 41 39 42
84 82 76 81 81 71 84 83 91 100 100 100 100 100 100 100 97 98 92 100 91 100 100 100 99 86 95 95 100 100 100 100 100 100 100 69 66 71 64 63 51 41 45 32 27 26 30
78 80 85 82 95 90 99 99 100 100 100 100 100 100 100 100 100 100 95 91 100 100 87 83 94 90 100 98 86 100 100 100 100 100 89 72 50 55 62 46 36 34 25 18 26 30 47
71 82 88 90 91 96 100 96 99 100 100 100 100 100 100 99 98 93 100 100 100 100 100 97 99 88 100 100 100 97 100 100 83 75 69 56 45 47 46 35 20 23 21 24 39 63 97
47 72 90 97 93 83 100 100 100 100 100 100 100 100 100 100 98 79 96 100 100 100 100 100 98 84 80 83 83 92 94 82 63 57 55 55 39 42 29 23 22 25 29 36 62 99 100
44 47 59 71 79 73 97 100 94 98 98 97 99 100 95 88 86 100 91 98 99 100 100 100 89 92 84 86 82 88 81 81 65 48 59 55 30 24 27 26 37 51 89 100 100 100 93
50 50 49 49 60 74 80 78 78 78 69 77 94 90 90 81 98 99 93 96 99 100 100 100 100 92 90 94 84 78 80 65 58 55 51 43 22 26 26 35 58 71 100 100 99 92 95
52 54 49 44 56 70 72 68 81 81 76 79 85 98 91 87 100 100 100 100 100 100 100 100 96 96 84 76 70 76 67 56 68 59 32 20 24 25 33 46 58 71 98 100 100 89 100
38 48 61 61 57 54 59 75 86 91 77 78 62 89 100 100 100 100 87 100 100 100 100 93 81 92 81 59 59 61 50 51 45 46 20 21 28 28 47 46 76 87 100 98 85 100 100
16 27 35 45 51 59 68 67 76 70 66 48 80 82 74 98 100 95 100 100 97 93 96 92 96 75 48 42 36 37 27 30 30 22 21 23 30 37 66 74 79 100 100 76 98 100 100
8 12 15 20 27 48 55 56 73 77 59 55 68 58 69 81 84 94 94 83 86 97 82 75 42 24 21 21 21 23 23 22 22 23 22 25 44 62 97 77 77 100 100 99 100 100 96
6 8 9 10 11 14 20 31 37 44 36 33 35 25 35 49 67 60 77 84 65 46 33 19 18 17 16 20 20 20 19 20 22 23 26 37 52 85 100 69 96 100 100 100 82 98 100
5 6 7 7 8 8 9 11 12 14 13 12 14 16 14 23 28 41 62 30 23 24 19 17 14 14 18 18 19 18 21 22 24 30 41 63 84 96 86 88 96 100 100 91 74 74 84
4 4 4 5 5 5 6 6 7 7 7 7 8 10 10 12 19 23 20 19 16 15 14 12 15 17 19 18 19 21 25 24 30 44 57 99 98 94 100 100 99 100 99 75 75 87 100
4 4 4 4 4 4 4 5 5 5 5 6 8 9 9 12 18 17 13 14 14 13 10 10 19 19 16 18 24 24 27 29 35 62 94 88 97 100 100 99 100 100 91 79 88 98 100
3 3 4 4 4 4 4 4 4 5 5 5 8 9 9 9 14 10 9 10 12 9 9 19 19 16 19 27 29 26 28 38 69 99 96 99 99 100 96 100 100 80 98 100 100 99 96

GFSGBSN_250_rhum_135.txt.gz
RH
44 34 51 54 94 81 54 80 67 53 68 54 98 89 85 82 76 79 86 85 57 74 78 80 93 81 69 71 72 85 100 100 100 98 84 80 79 95 99 98 97 87 73 65 77 60 51
48 54 72 76 90 59 56 62 46 50 100 79 94 93 73 92 66 48 54 76 76 58 69 61 68 81 79 86 90 98 100 100 100 100 70 70 96 70 76 93 90 96 100 69 55 63 59
71 70 64 72 65 61 54 55 39 36 60 72 83 100 57 63 56 40 47 64 79 49 44 43 61 91 91 92 97 86 85 94 89 74 80 88 55 60 95 100 100 94 92 70 69 69 63
79 87 83 70 61 31 40 48 57 45 31 49 60 70 92 66 58 38 39 51 78 68 72 88 100 100 96 100 92 76 78 78 84 94 94 65 42 79 100 100 95 96 82 76 63 66 63
81 61 58 54 36 34 41 58 73 71 54 41 46 62 87 88 78 62 51 46 44 51 38 56 82 89 91 100 94 89 90 91 95 87 65 41 49 99 100 95 90 84 74 80 69 65 55
76 38 53 77 70 64 50 66 63 86 57 55 44 54 60 60 74 73 70 61 57 49 70 73 73 79 88 88 73 100 100 100 96 71 57 96 100 100 99 86 92 88 68 66 68 68 69
100 59 86 100 84 70 69 54 66 66 64 48 40 52 54 65 81 73 69 71 75 82 100 100 100 100 99 84 98 100 100 100 100 100 85 65 96 100 100 100 92 81 74 79 96 92 63
79 87 81 85 79 98 85 69 65 79 82 77 52 40 44 55 53 74 98 82 78 76 93 99 98 90 64 96 100 100 100 100 98 92 100 100 100 100 100 100 86 85 89 98 92 82 83
90 96 92 100 100 98 100 100 92 88 100 92 93 86 72 71 88 82 88 93 89 70 67 61 58 33 45 65 85 100 100 100 100 100 100 88 100 100 98 99 94 87 92 100 100 100 100
100 100 100 100 100 100 100 100 100 100 91 100 100 100 100 100 100 100 93 100 100 100 70 57 73 67 54 59 82 98 100 100 94 100 100 98 100 100 100 100 93 96 100 93 79 80 83
100 100 100 100 100 100 100 100 100 100 100 100 100 100 100 100 100 100 100 86 83 84 77 72 70 92 74 76 70 76 82 96 94 100 100 100 100 100 100 94 86 82 88 81 72 70 64
100 100 100 100 100 100 100 100 100 100 100 100 100 100 100 100 100 100 99 96 96 81 86 84 99 97 92 90 100 94 91 94 97 100 95 93 99 100 96 93 86 75 70 69 74 89 78
88 96 100 100 100 100 100 100 100 100 100 100 100 100 100 100 100 94 99 94 89 93 92 94 94 79 76 85 85 82 90 82 93 92 99 94 100 100 92 90 98 86 78 73 77 80 66
95 92 84 80 100 100 100 100 100 100 100 100 100 100 100 100 100 100 94 97 97 90 100 100 100 98 93 93 88 97 93 91 100 99 96 95 98 95 96 98 100 100 100 95 70 59 59
82 83 90 98 99 90 100 99 100 100 95 92 97 99 99 100 100 100 98 91 95 100 100 100 100 92 93 92 94 95 91 100 100 98 88 79 77 84 88 88 74 76 78 77 70 57 46
98 93 85 88 87 96 100 100 100 100 100 100 99 98 96 99 95 98 91 95 100 100 100 100 100 100 100 100 100 100 94 94 96 88 77 76 76 94 100 100 87 73 62 64 61 37 26
59 60 81 80 85 93 98 100 100 100 100 100 100 100 98 100 97 96 99 100 100 100 100 100 100 100 100 100 100 100 100 99 100 100 91 67 69 68 85 96 82 69 54 59 52 21 14
38 56 69 65 65 72 77 99 100 100 100 100 100 97 100 100 94 87 92 100 100 100 100 100 100 100 100 100 100 100 100 92 88 78 70 75 60 74 75 84 56 51 56 55 28 18 18
41 37 44 40 39 70 90 88 96 87 100 96 90 93 96 99 93 100 100 100 100 100 100 100 100 100 100 100 100 100 98 92 79 77 82 87 70 69 72 67 61 58 63 36 22 25 45
32 41 42 44 44 44 57 75 98 95 87 94 95 99 88 76 94 100 100 95 100 100 100 100 94 92 98 95 89 78 81 83 73 75 88 94 92 62 59 62 58 49 44 24 41 60 79
17 22 29 46 62 53 55 50 58 57 58 80 76 97 98 96 100 100 96 100 97 100 100 93 89 90 88 80 75 83 81 77 91 97 89 79 65 66 64 55 39 31 24 35 94 92 90
12 16 18 23 37 46 55 69 54 59 61 59 67 71 75 90 100 89 87 100 100 100 99 99 100 100 100 100 100 95 66 76 98 99 90 77 61 40 36 39 26 21 29 64 98 97 90
8 10 13 20 26 38 49 58 62 61 54 43 57 70 73 97 97 96 100 100 100 98 100 100 100 100 100 100 69 65 76 90 91 95 78 40 26 25 37 26 20 23 71 75 98 100 96
6 7 8 10 15 25 38 49 52 56 58 54 68 73 84 80 80 100 100 100 100 100 100 100 100 100 93 74 71 75 83 86 75 49 27 24 24 21 28 22 21 36 79 84 97 100 100
5 6 7 8 10 12 17 26 38 46 49 61 60 64 82 89 97 85 99 100 100 100 91 91 97 90 91 82 75 71 61 40 35 25 23 22 20 22 23 23 23 50 91 99 97 100 100
4 5 6 7 8 9 11 13 17 26 28 39 49 58 85 91 89 100 100 100 99 95 93 95 87 78 62 50 46 36 25 21 20 20 20 20 20 20 23 21 29 65 90 100 85 98 91
3 4 4 6 7 8 9 10 12 14 16 20 32 40 48 59 92 100 100 100 92 92 92 89 68 58 46 36 25 24 21 19 19 19 19 20 20 22 21 30 58 88 81 93 92 100 99
3 4 4 5 6 7 8 8 10 12 13 15 23 21 22 30 52 68 86 82 67 60 52 31 22 24 20 20 22 21 20 19 22 21 22 23 24 29 40 71 91 95 100 98 93 100 99
4 4 4 4 5 6 6 7 8 9 10 12 13 16 15 14 20 21 26 28 24 22 22 19 17 15 17 21 19 20 20 20 21 22 25 29 41 71 90 100 100 98 94 91 99 100 100

GFSGBSN_250_rhum_138.txt.gz
RH
43 25 29 47 66 50 60 47 36 44 66 61 75 58 66 54 86 82 100 100 100 83 59 88 87 74 71 81 75 91 72 78 85 88 93 93 100 90 46 48 56 58 50 32 30 96 98
51 40 23 38 54 46 52 54 65 54 60 92 79 51 62 52 71 92 97 100 90 79 56 60 100 72 69 68 78 69 81 66 62 64 72 91 71 55 50 52 59 68 54 28 30 66 80
40 66 34 38 50 49 68 75 80 62 50 67 79 32 36 45 48 58 92 100 90 62 48 56 93 98 72 58 49 80 96 59 47 72 74 73 70 75 79 76 72 37 35 30 54 100 86
33 50 32 27 29 44 56 84 74 79 55 67 62 32 33 44 58 57 75 94 100 79 68 45 60 97 93 85 91 67 57 56 62 78 74 75 80 85 86 92 68 56 42 51 100 100 97
37 44 41 36 30 40 69 55 72 88 51 30 50 38 35 48 64 60 48 70 99 93 83 75 53 58 64 71 72 85 80 80 86 94 93 92 99 100 100 99 74 55 81 70 59 93 94
96 73 83 83 97 69 68 88 50 76 59 32 40 45 46 57 67 73 53 43 72 76 66 69 53 94 66 68 92 100 100 100 100 100 100 100 100 100 94 81 81 81 65 73 97 100 87
73 57 57 50 66 45 39 70 85 55 64 50 38 57 58 58 73 75 68 47 40 60 55 66 67 78 97 89 100 100 98 89 85 86 74 84 100 93 87 89 82 83 87 100 100 100 91
97 80 100 82 70 61 48 74 78 79 72 69 59 60 55 58 45 64 66 73 50 33 45 80 88 80 81 75 77 79 67 52 57 62 43 39 67 79 76 94 100 100 100 100 100 100 95
82 76 81 74 76 56 62 53 79 87 73 65 73 77 52 38 62 62 75 65 52 47 37 54 63 64 80 70 59 55 56 64 68 78 75 80 95 94 100 100 97 88 100 100 100 100 97
100 91 100 94 96 95 95 82 84 89 79 85 100 69 62 66 76 77 71 55 56 74 56 48 64 82 80 97 99 100 100 91 89 86 82 99 100 100 100 100 100 100 100 100 92 90 78
100 100 100 100 100 89 100 100 100 100 100 100 100 100 97 75 89 100 93 100 100 100 88 98 100 100 100 100 100 100 100 88 72 83 83 88 100 100 100 100 100 99 76 86 99 97 91
100 100 100 100 100 100 100 100 100 100 100 100 100 100 100 100 100 96 100 100 100 100 100 100 100 100 100 100 100 100 96 96 81 77 75 96 90 81 92 85 76 80 74 83 79 88 76
90 96 98 100 100 100 100 100 100 100 100 100 100 100 100 100 100 100 100 96 99 85 97 100 100 100 100 100 100 99 86 91 83 80 92 85 84 87 89 93 97 86 72 74 69 71 60
83 82 94 100 100 100 100 100 100 100 100 100 100 100 100 100 100 100 100 100 100 100 100 100 100 100 100 100 98 100 97 100 100 100 93 92 94 91 87 85 90 86 84 82 67 64 71
83 100 100 100 100 100 100 100 100 100 98 96 94 100 89 100 100 100 100 100 100 100 100 100 100 100 100 100 100 100 100 100 100 100 100 89 86 95 90 88 81 80 76 75 66 63 62
68 78 93 95 100 100 100 100 100 100 100 100 100 100 100 100 94 98 100 100 100 100 100 100 100 100 100 100 100 100 100 100 100 100 100 100 100 100 100 100 100 88 77 76 80 65 58
32 40 54 61 75 88 97 100 100 100 100 100 100 100 100 100 100 100 100 100 100 100 100 100 100 100 100 100 100 100 100 100 100 100 100 100 95 99 98 100 100 99 87 69 64 68 55
27 28 31 45 43 52 68 87 100 100 100 100 100 100 100 97 100 100 100 100 100 100 100 100 100 100 100 100 100 100 100 100 100 100 96 85 79 87 96 100 100 95 89 78 62 67 74
18 24 28 34 37 37 45 59 92 95 97 100 100 100 100 100 90 96 99 100 100 100 100 100 100 100 100 100 100 100 100 100 99 87 87 89 79 75 91 91 90 96 86 74 78 70 80
12 14 16 19 29 41 50 53 75 87 91 98 100 100 100 93 97 100 100 97 100 100 100 100 100 100 100 100 99 97 100 100 99 82 83 79 71 70 77 96 92 93 96 85 74 75 48
10 11 13 14 17 24 41 70 83 76 68 83 98 85 100 89 100 100 100 100 100 99 92 100 100 100 100 100 100 100 89 80 93 77 70 62 65 95 99 94 88 90 91 88 44 41 34
8 9 10 12 14 17 20 33 78 87 84 87 89 81 68 63 77 91 64 100 100 100 95 100 100 99 87 74 87 96 71 67 64 70 82 90 96 100 100 81 69 67 76 32 30 37 26
7 8 9 10 12 13 15 20 38 62 56 76 94 94 94 98 95 91 94 87 95 87 84 83 82 77 86 87 72 72 83 92 87 100 100 99 97 82 82 71 64 58 33 32 30 24 24
4 4 4 8 9 10 13 16 18 28 48 49 60 78 85 90 98 100 100 100 100 95 87 96 100 99 90 82 83 99 100 88 83 97 96 96 94 77 65 54 29 29 28 28 24 25 29
4 5 5 6 8 9 11 13 17 19 24 36 46 57 65 76 94 100 100 100 100 100 100 100 100 99 96 91 88 77 77 70 80 100 96 96 86 44 25 20 24 24 26 26 25 25 34
5 5 4 4 6 7 9 10 13 18 20 22 28 48 79 61 77 94 91 100 100 100 100 100 94 88 92 85 81 79 81 90 88 100 96 57 24 22 18 17 21 24 24 23 22 36 44
5 5 5 4 5 6 7 9 11 14 16 20 24 28 36 60 84 88 97 100 97 95 90 89 94 92 85 84 79 89 88 94 88 86 47 26 18 19 15 18 23 24 20 22 38 53 74
4 4 4 4 4 5 6 8 10 12 13 15 22 21 23 38 68 73 83 98 100 97 94 91 80 86 92 98 95 94 76 83 47 24 21 18 21 18 22 23 23 23 29 41 71 84 93
3 3 3 4 4 5 5 7 8 9 10 12 15 17 18 19 28 43 50 56 69 86 87 83 80 74 70 74 61 48 40 34 19 22 16 23 22 27 25 25 36 62 87 95 96 100 100

GFSGBSN_250_rhum_141.txt.gz
RH
34 43 32 42 38 63 66 63 65 40 31 61 55 76 76 65 90 93 91 46 36 55 78 100 100 96 92 65 89 89 76 76 85 91 100 92 99 100 98 73 62 50 51 63 66 60 62
34 54 30 40 37 52 45 60 53 48 41 58 54 93 97 83 67 67 67 65 31 47 92 100 100 100 85 61 85 85 89 72 93 94 96 99 63 60 50 56 83 86 63 49 53 49 63
30 61 34 44 32 34 29 53 45 59 34 26 50 88 100 98 71 47 47 50 38 45 51 59 100 100 81 49 59 100 100 75 68 72 89 66 43 36 44 57 61 63 62 59 66 74 65
43 38 37 40 48 30 31 61 36 46 34 23 34 54 99 97 78 58 31 40 40 40 42 61 64 100 99 81 64 51 72 98 87 79 74 69 73 78 86 95 90 81 76 89 89 84 84
72 40 33 30 56 32 33 60 36 44 36 37 28 48 86 100 91 88 43 33 25 38 53 76 71 70 94 99 82 67 51 67 84 93 100 100 100 100 93 93 77 93 77 99 98 100 93
35 68 42 42 40 40 33 35 35 38 61 40 52 61 54 59 94 100 89 58 37 32 54 78 85 65 74 80 75 86 69 70 70 86 100 100 100 92 86 78 86 94 99 100 98 88 71
69 76 67 71 63 74 60 59 54 67 85 100 52 84 39 40 55 94 71 55 37 32 50 88 96 92 70 66 66 66 88 89 92 71 61 65 66 63 53 52 52 51 46 67 76 68 66
100 100 100 100 83 84 77 69 58 72 59 79 76 68 52 28 36 51 65 66 46 42 53 51 68 84 72 66 56 57 62 63 70 72 48 43 43 44 59 72 74 63 59 71 74 100 100
100 92 96 100 100 100 87 85 74 70 81 71 58 70 60 48 36 51 35 50 39 60 50 39 31 44 82 75 70 64 58 61 61 66 60 72 84 85 86 90 76 67 61 69 94 95 100
100 100 100 100 100 100 98 97 91 87 90 90 85 91 79 77 61 51 46 49 65 84 64 40 28 48 78 88 76 70 63 61 60 64 76 93 96 96 97 90 76 78 68 72 77 90 90
100 100 100 100 100 100 100 100 99 100 100 100 95 100 100 92 83 100 89 97 100 97 68 59 44 47 62 68 77 78 64 88 100 100 100 100 100 100 99 90 80 89 78 67 81 93 88
100 99 100 100 100 100 100 100 100 100 100 99 100 99 100 100 100 100 100 100 94 91 78 72 79 82 94 97 92 82 87 100 100 100 100 100 100 100 100 95 86 78 81 86 75 73 66
100 95 64 100 97 100 100 81 100 100 100 100 100 100 100 100 100 100 100 100 100 98 98 69 83 91 96 97 100 100 100 100 100 100 100 100 100 100 97 96 98 89 83 87 80 73 61
42 47 53 70 82 70 96 95 92 100 100 100 100 100 100 100 100 100 100 100 100 100 100 100 100 100 100 100 100 100 98 99 94 100 100 100 100 96 100 100 99 95 90 89 87 84 92
30 31 51 57 80 92 95 100 96 100 100 100 100 100 100 100 100 100 100 100 100 100 100 100 100 100 100 100 100 97 100 100 100 100 100 100 100 100 100 96 100 100 94 92 90 83 75
28 38 50 47 59 70 92 100 100 100 100 100 100 96 100 100 100 100 100 100 100 100 100 100 100 100 100 100 100 100 100 100 100 100 100 100 100 100 100 100 99 90 92 78 73 71 71
19 24 33 46 63 79 89 94 96 100 100 100 100 100 100 100 100 100 100 100 100 100 100 100 100 100 100 100 100 100 100 100 100 100 100 100 97 92 100 100 100 94 84 84 82 76 73
14 16 20 27 36 45 75 85 94 100 100 100 100 100 100 100 100 100 100 100 100 100 100 100 100 100 100 100 100 100 100 94 98 100 100 100 100 100 99 100 98 98 99 97 82 82 81
12 12 14 16 22 28 42 45 64 92 100 99 90 100 100 100 98 100 100 100 100 100 100 100 100 100 100 100 100 100 100 100 100 100 100 100 98 85 72 88 94 100 100 94 82 87 73
11 10 12 13 17 20 28 37 55 54 52 71 71 88 91 85 99 100 100 100 100 100 100 100 100 100 100 100 100 100 97 90 91 90 86 76 76 78 87 91 88 93 96 78 75 78 76
8 10 10 11 14 16 20 25 38 38 48 46 44 52 73 84 81 92 80 96 100 100 100 89 94 97 91 86 89 96 88 91 92 92 82 81 93 76 78 85 71 76 83 81 85 86 80
4 6 9 10 12 14 15 18 23 25 44 54 43 47 44 51 56 80 94 100 100 100 100 100 99 97 100 100 99 83 88 92 99 98 98 92 90 85 73 67 74 75 82 80 87 88 81
5 5 5 8 10 12 13 16 19 22 29 41 60 52 42 50 50 52 73 87 100 100 100 100 100 100 100 97 96 95 86 96 97 99 91 89 81 71 71 83 76 74 78 92 86 80 52
4 5 5 5 9 10 11 11 13 16 21 26 51 61 69 39 37 55 84 95 99 100 88 91 89 93 98 91 94 100 97 90 82 87 83 81 73 65 76 79 80 85 90 86 63 45 20
4 5 5 5 6 7 8 10 11 12 15 19 27 39 62 74 84 85 81 64 92 93 93 98 96 85 83 88 87 82 70 73 77 80 87 84 85 89 84 64 59 95 52 22 27 20 20
3 4 5 6 5 5 6 8 9 10 12 15 20 30 37 48 64 66 93 97 88 74 73 84 80 76 79 77 74 74 76 86 87 94 99 95 87 88 69 54 74 35 17 17 20 24 20
3 2 3 3 5 4 6 6 7 8 10 13 15 20 33 45 57 54 62 81 83 90 97 100 100 99 96 94 92 97 97 87 85 98 99 99 96 73 59 31 27 20 20 20 23 24 23
2 3 4 4 5 5 8 8 7 8 10 11 14 14 18 36 39 47 51 64 70 85 93 94 94 95 96 98 94 88 76 79 84 91 100 94 76 57 33 22 26 23 22 22 24 28 30
3 4 5 5 4 5 6 7 7 8 8 9 13 12 14 19 32 50 60 71 75 67 58 60 70 72 72 74 73 71 83 90 99 100 89 75 32 27 25 28 26 25 28 28 35 44 50

GFSGBSN_250_rhum_147.txt.gz
RH
88 72 62 68 62 63 44 48 55 58 76 57 85 77 53 57 48 47 48 52 61 52 40 94 100 100 97 70 48 28 24 27 37 98 100 100 93 64 64 76 100 95 100 90 91 89 100
72 95 60 66 73 58 50 51 57 56 82 79 82 78 56 40 56 49 40 54 62 38 34 97 100 99 94 81 60 37 37 38 32 33 54 87 84 49 54 69 67 80 100 100 96 91 81
77 91 93 56 63 52 54 58 61 67 83 79 78 54 53 26 42 46 43 64 60 50 33 32 49 59 77 86 86 88 81 73 32 29 37 92 99 89 94 99 87 68 79 100 100 93 73
47 43 55 77 95 61 49 58 64 64 75 83 66 42 46 58 32 47 37 42 58 50 44 28 27 31 30 38 75 93 100 87 54 30 28 47 75 100 100 100 100 100 100 100 99 100 98
63 42 51 74 46 53 87 62 58 50 68 100 54 67 51 33 32 34 54 46 32 31 29 33 30 33 37 50 40 54 88 92 77 54 35 28 46 60 81 91 100 80 100 96 100 100 94
75 61 69 43 60 54 82 59 77 45 56 77 99 66 59 51 28 31 37 52 40 38 35 49 52 50 55 59 65 46 89 99 89 69 42 31 36 60 59 77 86 99 71 100 97 64 80
75 64 67 79 44 75 64 77 58 63 57 76 78 58 43 54 53 38 57 55 53 56 70 69 63 80 81 85 58 59 54 67 98 84 71 41 36 36 60 58 80 68 87 95 81 89 83
57 84 92 56 100 71 87 95 46 55 59 76 73 78 65 32 40 90 100 94 92 79 88 86 83 75 82 81 94 87 52 69 71 86 82 75 61 42 39 50 57 65 71 83 86 77 64
86 66 100 73 82 68 59 100 45 38 43 67 73 73 66 74 44 80 100 86 100 100 100 100 94 77 82 81 95 100 83 77 69 70 90 93 88 69 40 36 48 82 75 75 80 81 78
70 66 52 53 74 66 46 82 83 63 45 50 47 62 80 65 77 75 92 100 100 99 94 99 100 96 100 100 97 99 92 82 87 96 90 89 89 90 75 43 44 62 49 69 62 61 84
100 82 68 69 72 97 66 58 90 46 58 80 64 46 59 60 74 100 100 100 100 100 100 100 94 100 100 100 100 100 100 83 70 90 94 59 100 96 77 45 55 43 32 40 34 38 45
100 100 100 100 91 100 100 100 100 100 90 98 98 85 96 74 89 80 100 100 100 100 89 91 100 99 100 100 100 97 100 100 75 100 100 98 98 100 89 84 71 66 54 55 62 63 61
100 100 100 100 100 100 99 100 100 100 100 100 86 100 95 92 98 97 100 100 100 100 100 100 100 100 100 100 100 99 100 95 100 94 98 85 73 65 78 100 100 99 91 73 76 83 90
100 100 100 100 100 100 100 100 100 100 100 100 100 100 100 100 100 99 100 100 99 98 100 100 100 100 100 100 100 100 100 97 100 100 98 68 87 76 100 100 100 97 59 94 96 90 100
100 100 100 100 100 100 100 100 100 100 100 100 100 100 100 100 99 100 100 100 100 100 100 100 100 100 100 100 100 100 100 100 99 100 100 100 100 100 100 100 100 81 95 98 100 100 100
61 89 100 100 100 100 100 100 100 100 100 100 100 99 99 100 100 94 89 83 100 99 100 100 100 100 100 100 100 100 100 100 100 96 94 100 93 95 88 85 75 93 97 100 100 100 98
57 52 54 54 87 93 94 72 62 90 100 100 93 60 68 83 76 83 76 63 99 97 100 98 100 100 100 100 100 100 100 100 100 100 100 100 100 100 100 100 100 100 100 100 87 88 61
36 35 48 51 53 56 58 54 59 55 69 71 63 63 63 73 76 85 84 95 91 88 100 96 100 100 100 100 100 100 100 100 100 100 100 100 100 100 100 100 100 100 88 71 66 70 74
21 24 24 26 30 35 41 48 50 56 60 60 72 68 67 72 71 81 96 97 100 100 100 100 100 100 90 100 100 100 100 100 100 100 100 100 100 100 92 98 97 91 96 96 92 84 78
13 14 16 18 20 22 24 28 33 34 38 36 33 56 60 53 63 82 77 92 99 99 100 100 99 100 92 100 96 100 89 92 96 94 91 100 98 95 92 82 75 76 74 80 89 89 83
8 8 10 10 10 13 16 17 19 21 22 24 23 24 41 53 46 63 53 73 92 88 99 100 100 98 88 100 97 100 100 98 92 98 98 95 89 82 89 79 68 75 86 86 74 72 67
6 7 7 9 10 11 12 14 16 17 19 17 16 17 21 23 39 55 48 46 52 70 84 92 90 82 100 100 100 100 100 100 86 82 68 66 68 70 84 75 65 72 83 76 74 82 79
4 4 5 6 7 8 9 12 12 13 13 14 15 14 16 19 21 25 31 35 47 49 64 76 73 77 77 86 98 99 100 93 82 73 75 70 70 64 80 65 56 66 89 92 82 92 76
3 3 4 4 5 5 7 10 10 9 12 11 13 15 16 17 18 22 26 28 34 43 46 44 42 48 50 92 92 100 98 94 90 86 75 69 71 64 58 63 72 88 99 92 90 89 72
3 3 3 3 4 5 5 7 7 6 9 11 12 14 16 17 18 18 19 23 29 38 55 62 52 45 83 90 87 78 73 71 81 86 83 83 73 64 71 78 92 99 96 93 76 90 76
3 3 3 4 4 4 5 6 6 6 6 11 11 13 13 16 17 18 19 21 25 38 42 51 66 69 74 71 89 82 76 98 85 99 91 84 91 91 86 87 93 93 84 82 88 80 67
2 2 3 4 4 4 5 5 6 5 4 9 10 12 14 15 16 18 19 22 22 24 30 34 46 53 54 62 74 80 75 85 88 98 98 98 99 98 100 94 98 93 84 84 78 66 58
2 2 2 3 4 5 5 5 5 5 5 7 11 12 12 13 14 17 20 20 23 25 25 31 36 41 51 79 84 70 68 71 89 95 95 100 100 100 95 91 100 91 79 79 71 62 65
2 2 3 3 3 4 5 6 5 7 6 6 10 10 11 13 13 16 19 18 21 25 32 38 39 49 54 54 63 60 64 68 80 89 89 93 97 97 97 100 93 80 77 69 71 68 58